[[{"header":{"parameterUnit":"m.s-1","parameterCategory":1,"la1":30.2991,"la2":30.254,"lo1":-89.0895,"lo2":-89.0444,"dy":0.0017,"dx":0.0017,"nx":28,"ny":28,"refTime":"2024-08-24T21:00:00:Z","depth":0,"parameterNumber":2,"parameterNumberName":"U-component_of_WINDS"},"data":[0,0,0,0,0,0,0,0,0,0,0,0,0,0,0,0,0,0,0,0,0,0,0,0,0,0,0,0,0,0,0,0,0,0,0,0,0,0,0,0,0,0,0,0,0,0,0,0,0,0,0,0,0,0,0,0,0,0,-4.0175,-4.0175,0,-4.0115,-4.0114,-4.0113,-3.9969,-3.9966,-3.9963,-3.996,-3.99,-3.9901,-3.9903,0,0,0,0,0,0,0,0,0,0,0,0,0,-4.0171,-4.0172,-4.0175,-4.0175,-4.0174,-4.0115,-4.0114,-4.0113,-3.9969,-3.9965,-3.9962,-3.9958,-3.99,-3.9901,-3.9903,0,0,0,0,0,0,0,0,0,0,0,0,0,-4.0148,-4.0172,-4.0175,-4.0095,-4.0087,-4.0115,-4.0114,-4.0113,-3.997,-3.9965,-3.9961,-3.9957,-3.9899,-3.9901,-3.9903,-4.0005,0,0,-3.9909,-3.9909,0,0,0,0,0,0,0,0,-4.0149,-4.0148,-4.0107,-4.01,-4.0092,-4.0044,-4.009,-4.0077,-3.9971,-4.0014,-3.996,-3.9954,-3.9952,-3.9949,-3.9948,-4.0002,-4.0,-3.9909,-3.991,-3.9911,-3.9911,0,0,0,0,0,0,0,-4.0151,-4.015,-4.0151,-4.0107,-4.0097,-4.0063,-4.0055,-4.0087,-4.001,-4.001,-4.0,-3.9994,-3.9947,-3.9947,-3.9945,-3.9999,-3.9909,-3.991,-3.9911,-3.9912,-4.0136,-4.0141,0,0,0,0,0,0,-4.0164,-4.0152,-4.0153,-4.0149,-4.011,-4.0067,-4.0057,-4.0064,-4.0009,-3.9996,-3.9998,-3.9988,-3.9946,-3.9943,-3.9943,-4.0059,-3.9911,-3.9912,-3.9913,-4.0131,-4.0137,-4.0142,0,0,0,0,0,0,-4.0164,-4.0165,-4.0156,-4.0148,-4.0144,-4.0072,-4.008,-4.0065,-4.0065,-4.0,-3.9985,-4.0012,-3.9942,-3.994,-3.9991,-4.0055,-3.9913,-3.9915,-4.0126,-4.0133,-4.014,-4.0294,0,0,0,0,0,0,-4.0165,-4.0166,-4.0203,-4.015,-4.0145,-4.0204,-4.0084,-4.0068,-4.0068,-4.0054,-4.0008,-3.9997,-3.9938,-3.9989,-3.9993,-4.0055,-3.9916,-4.012,-4.0129,-4.0138,-4.0283,-4.0306,-4.0325,0,0,0,0,0,-4.0165,-4.0249,-4.0206,-4.0207,-4.0189,-4.0208,-4.0205,-4.0135,-4.0074,-4.0111,-4.007,-3.9998,-4.0048,-3.9995,-3.9998,-4.0063,-4.0115,-4.0126,-4.0137,-4.0273,-4.0301,-4.0325,0,0,0,0,0,0,-4.0312,-4.024,-4.0192,-4.0261,-4.0242,-4.0183,-4.0228,-4.0167,-4.0165,-4.0152,-4.0067,-4.0058,-4.0121,-4.0097,-4.0039,-4.016,-4.007,-4.0082,-4.0173,-4.0199,-4.022,-4.0224,-3.9918,0,0,0,0,0,-4.0353,-4.0373,-4.0309,-4.0376,-4.0369,-4.0301,-4.0306,-4.0254,-4.0231,-4.0223,-4.0185,-4.0166,-4.0177,-4.0187,-4.0194,-4.0279,-4.0268,-4.0325,-4.0346,-4.0364,-4.0375,-4.042,-4.0445,-4.0178,-4.0178,-4.0178,0,0,-4.0436,-4.04,-4.0417,-4.0405,-4.0384,-4.0408,-4.0295,-4.0324,-4.0342,-4.0227,-4.0273,-4.0245,-4.0219,-4.0288,-4.0316,-4.027,-4.0447,-4.0378,-4.0392,-4.0394,-4.0434,-4.046,-4.0482,-4.0186,-4.0184,-4.0183,0,0,-4.0601,-4.0575,-4.0628,-4.061,-4.058,-4.0534,-4.0548,-4.0499,-4.0476,-4.0521,-4.0436,-4.0456,-4.0477,-4.0462,-4.0458,-4.0621,-4.0555,-4.0625,-4.0736,-4.0781,-4.0802,-4.082,-4.0879,-4.0901,-4.0637,-4.0637,-4.0638,0,-4.0709,-4.074,-4.0664,-4.0699,-4.0697,-4.0595,-4.065,-4.0636,-4.0611,-4.0612,-4.056,-4.0586,-4.0561,-4.0626,-4.0666,-4.0665,-4.0679,-4.0629,-4.0805,-4.0822,-4.0838,-4.0894,-4.0916,-4.0646,-4.0645,-4.0644,-4.0643,0,-4.0875,-4.0899,-4.0946,-4.0923,-4.0926,-4.0972,-4.0904,-4.0917,-4.0866,-4.0827,-4.0875,-4.0841,-4.0841,-4.0852,-4.0802,-4.0911,-4.0883,-4.082,-4.0728,-4.0874,-4.0924,-4.0945,-4.0659,-4.0655,-4.0653,-4.0651,0,0,-4.1128,-4.1065,-4.1083,-4.1073,-4.1033,-4.1051,-4.1093,-4.1091,-4.1105,-4.1091,-4.1125,-4.1147,-4.1088,-4.1083,-4.1031,-4.1071,-4.1204,-4.1002,-4.1,-4.1041,-4.1323,-4.1371,-4.1397,-4.1161,-4.1164,-4.1167,-4.1325,0,-4.1283,-4.1349,-4.1283,-4.1364,-4.1385,-4.129,-4.1327,-4.1308,-4.1273,-4.1288,-4.1249,-4.1266,-4.1187,-4.1184,-4.1219,-4.118,-4.1259,-4.1168,-4.1192,-4.1194,-4.1202,-4.1423,-4.1473,-4.1624,-4.1345,-4.1348,-4.135,0,-4.1472,-4.1468,-4.155,-4.1507,-4.1514,-4.1548,-4.1543,-4.1557,-4.1535,-4.1507,-4.1503,-4.144,-4.148,-4.1392,-4.1446,-4.1386,-4.1392,-4.1375,-4.1379,-4.1379,-4.1281,-4.1429,-4.167,-4.1693,-4.138,-4.1378,-4.1376,0,-4.165,-4.1664,-4.1716,-4.171,-4.1661,-4.1687,-4.1668,-4.1641,-4.1645,-4.1642,-4.1644,-4.1646,-4.1646,-4.165,-4.159,-4.1531,-4.1653,-4.1559,-4.1632,-4.1634,-4.1661,-4.166,-4.1908,-4.1666,-4.1666,-4.1665,-4.1665,0,-4.1829,-4.1884,-4.1795,-4.1827,-4.1886,-4.1811,-4.1872,-4.1843,-4.182,-4.1846,-4.1765,-4.1791,-4.171,-4.1729,-4.1683,-4.1736,-4.1737,-4.1716,-4.1704,-4.1724,-4.1727,-4.1726,-4.1714,-4.1671,-4.167,-4.1669,-4.1668,0,-4.2037,-4.1979,-4.2029,-4.198,-4.1969,-4.2015,-4.1973,-4.2001,-4.1962,-4.1996,-4.1999,-4.1938,-4.1956,-4.1897,-4.1905,-4.1874,-4.1953,-4.1923,-4.196,-4.1951,-4.2028,-4.2022,-4.2284,-4.2315,-4.2054,-4.2056,-4.2059,0,-4.2155,-4.2194,-4.215,-4.2161,-4.2146,-4.2165,-4.217,-4.2099,-4.2107,-4.2086,-4.2117,-4.2128,-4.2133,-4.2166,-4.2123,-4.213,-4.2099,-4.2191,-4.21,-4.212,-4.2102,-4.21,-4.2104,-4.221,-4.2213,-4.2216,-4.2218,0,-4.2371,-4.2341,-4.235,-4.235,-4.2358,-4.2354,-4.2346,-4.236,-4.2284,-4.2297,-4.2314,-4.2318,-4.2327,-4.234,-4.2338,-4.232,-4.2257,-4.2247,-4.2264,-4.2285,-4.2306,-4.2296,-4.2012,-4.2241,-4.2239,-4.2237,-4.2236,-4.2235,-4.2537,-4.2569,-4.2543,-4.2556,-4.2542,-4.2537,-4.2561,-4.2526,-4.2539,-4.254,-4.2498,-4.2524,-4.2503,-4.2493,-4.2482,-4.2503,-4.246,-4.2485,-4.2491,-4.2499,-4.2512,-4.2303,-4.2502,-4.2501,-4.25,-4.25,-4.2499,0,-4.275,-4.2729,-4.2742,-4.2733,-4.2744,-4.2684,-4.2672,-4.2686,-4.2709,-4.2695,-4.2702,-4.2723,-4.2735,-4.2695,-4.2701,-4.2726,-4.2698,-4.273,-4.2728,-4.2725,-4.2549,-4.2534,-4.2753,-4.2753,-4.2753,-4.2753,-4.2753,-4.2753,-4.2862,-4.2912,-4.288,-4.2925,-4.2903,-4.2928,-4.2926,-4.2922,-4.2909,-4.2936,-4.2946,-4.292,-4.2895,-4.29,-4.291,-4.2897,-4.2904,-4.2947,-4.2925,-4.2762,-4.2737,-4.2713,-4.2698,-4.2949,-4.2949,-4.3099,-4.31,-4.3102]},{"header":{"parameterUnit":"m.s-1","parameterCategory":1,"la1":30.2991,"la2":30.254,"lo1":-89.0895,"lo2":-89.0444,"dy":0.0017,"dx":0.0017,"nx":28,"ny":28,"refTime":"2024-08-24T21:00:00:Z","depth":0,"parameterNumber":3,"parameterNumberName":"V-component_of_WINDS"},"data":[0,0,0,0,0,0,0,0,0,0,0,0,0,0,0,0,0,0,0,0,0,0,0,0,0,0,0,0,0,0,0,0,0,0,0,0,0,0,0,0,0,0,0,0,0,0,0,0,0,0,0,0,0,0,0,0,0,0,1.5218,1.5219,0,1.5238,1.5238,1.5238,1.5285,1.5286,1.5287,1.5288,1.5304,1.5304,1.5303,0,0,0,0,0,0,0,0,0,0,0,0,0,1.522,1.522,1.5218,1.5219,1.5219,1.5238,1.5238,1.5238,1.5285,1.5286,1.5287,1.5289,1.5305,1.5304,1.5303,0,0,0,0,0,0,0,0,0,0,0,0,0,1.5227,1.522,1.5218,1.5245,1.5247,1.5238,1.5238,1.5238,1.5285,1.5286,1.5288,1.5289,1.5305,1.5304,1.5303,1.5269,0,0,1.5301,1.5301,0,0,0,0,0,0,0,0,1.5227,1.5227,1.524,1.5243,1.5246,1.5261,1.5245,1.5248,1.5284,1.527,1.5288,1.529,1.5288,1.5289,1.5289,1.527,1.527,1.5301,1.5301,1.53,1.53,0,0,0,0,0,0,0,1.5226,1.5227,1.5226,1.5241,1.5244,1.5255,1.5257,1.5245,1.5271,1.5272,1.5275,1.5277,1.529,1.529,1.529,1.527,1.5301,1.53,1.53,1.53,1.5224,1.5222,0,0,0,0,0,0,1.5222,1.5226,1.5225,1.5226,1.524,1.5254,1.5257,1.5254,1.5271,1.5275,1.5276,1.5279,1.529,1.5291,1.5291,1.5251,1.53,1.53,1.5299,1.5225,1.5224,1.5222,0,0,0,0,0,0,1.5222,1.5222,1.5225,1.5227,1.5228,1.5252,1.5249,1.5254,1.5254,1.5274,1.5278,1.5271,1.5292,1.5292,1.5274,1.5252,1.5299,1.5299,1.5227,1.5225,1.5223,1.5172,0,0,0,0,0,0,1.5222,1.5222,1.5209,1.5227,1.5228,1.5208,1.5248,1.5253,1.5253,1.5257,1.5271,1.5274,1.5293,1.5275,1.5274,1.5252,1.5298,1.5229,1.5226,1.5223,1.5175,1.5168,1.5162,0,0,0,0,0,1.5222,1.5193,1.5208,1.5208,1.5213,1.5207,1.5207,1.523,1.5251,1.5238,1.5251,1.5274,1.5256,1.5273,1.5272,1.525,1.5231,1.5227,1.5224,1.5179,1.5169,1.5162,0,0,0,0,0,0,1.517,1.5196,1.5213,1.5188,1.5195,1.5215,1.5199,1.522,1.522,1.5224,1.5251,1.5254,1.5232,1.524,1.5258,1.5218,1.5247,1.5243,1.5213,1.5205,1.5198,1.5196,1.5297,0,0,0,0,0,1.5156,1.515,1.5172,1.5149,1.5152,1.5175,1.5173,1.519,1.5198,1.52,1.5212,1.5218,1.5214,1.521,1.5207,1.5178,1.5181,1.5162,1.5155,1.5149,1.5145,1.513,1.5122,1.521,1.521,1.521,0,0,1.5127,1.514,1.5134,1.5139,1.5146,1.5138,1.5177,1.5166,1.516,1.5198,1.5182,1.5192,1.52,1.5176,1.5167,1.5182,1.5122,1.5145,1.514,1.5139,1.5126,1.5117,1.511,1.5208,1.5208,1.5209,0,0,1.5068,1.5078,1.506,1.5067,1.5078,1.5094,1.509,1.5107,1.5115,1.51,1.5128,1.5122,1.5114,1.5119,1.512,1.5066,1.5087,1.5065,1.5027,1.5012,1.5005,1.4999,1.4979,1.4972,1.5061,1.506,1.506,0,1.503,1.502,1.5048,1.5036,1.5037,1.5074,1.5055,1.506,1.5069,1.5069,1.5086,1.5078,1.5086,1.5064,1.5051,1.5051,1.5047,1.5062,1.5004,1.4999,1.4993,1.4974,1.4967,1.5058,1.5058,1.5058,1.5058,0,1.4971,1.4964,1.4948,1.4957,1.4957,1.4942,1.4967,1.4963,1.4981,1.4995,1.498,1.4992,1.4992,1.4988,1.5005,1.4969,1.4978,1.5,1.5029,1.4981,1.4964,1.4957,1.5053,1.5054,1.5055,1.5056,0,0,1.4878,1.4905,1.4899,1.4904,1.492,1.4914,1.4901,1.4903,1.4899,1.4905,1.4894,1.4887,1.4908,1.491,1.4928,1.4915,1.4871,1.4938,1.4939,1.4924,1.4831,1.4813,1.4805,1.4886,1.4885,1.4884,1.483,0,1.4823,1.4802,1.4828,1.4801,1.4795,1.483,1.4819,1.4827,1.4841,1.4837,1.4852,1.4846,1.4874,1.4875,1.4865,1.4879,1.4852,1.4883,1.4875,1.4874,1.4869,1.4796,1.4777,1.4725,1.4824,1.4822,1.4822,0,1.4754,1.4758,1.4731,1.4751,1.4749,1.4738,1.4742,1.4739,1.4749,1.476,1.4763,1.4785,1.4773,1.4804,1.4788,1.4808,1.4807,1.4813,1.4812,1.481,1.4843,1.4791,1.471,1.4701,1.4811,1.4812,1.4813,0,1.4687,1.4686,1.467,1.4674,1.4696,1.4688,1.4696,1.4709,1.4708,1.4712,1.4712,1.4714,1.4714,1.4715,1.4738,1.4758,1.4718,1.4751,1.4726,1.4725,1.4713,1.4713,1.4629,1.4715,1.4715,1.4716,1.4716,0,1.4621,1.4603,1.4641,1.4631,1.4612,1.4642,1.4622,1.4634,1.4645,1.4638,1.4669,1.4661,1.4692,1.4688,1.4705,1.4689,1.4689,1.4697,1.4701,1.4693,1.4691,1.469,1.4694,1.4714,1.4714,1.4714,1.4715,0,1.4542,1.4567,1.4552,1.4575,1.4581,1.4565,1.4585,1.4576,1.4593,1.4583,1.4582,1.4608,1.4604,1.4628,1.4628,1.464,1.4614,1.4626,1.4611,1.4613,1.4586,1.4588,1.4497,1.4486,1.4581,1.458,1.4579,0,1.4497,1.4485,1.4507,1.4505,1.4513,1.4509,1.4509,1.4539,1.4538,1.455,1.454,1.454,1.454,1.4533,1.4551,1.4552,1.4562,1.4531,1.4562,1.4555,1.456,1.456,1.4559,1.4523,1.4522,1.4521,1.452,0,1.4415,1.4428,1.4429,1.4433,1.4434,1.4438,1.4445,1.4441,1.4474,1.4471,1.4469,1.447,1.4471,1.447,1.4475,1.4483,1.4506,1.4511,1.4505,1.4495,1.4486,1.4489,1.4591,1.4512,1.4513,1.4513,1.4514,1.4514,1.4351,1.4341,1.4356,1.4355,1.4364,1.437,1.4364,1.438,1.4379,1.4383,1.4401,1.4396,1.4408,1.4417,1.4423,1.4419,1.4434,1.4425,1.4423,1.442,1.4414,1.4489,1.442,1.442,1.442,1.4421,1.4421,0,1.4269,1.4281,1.428,1.429,1.4289,1.4314,1.4323,1.4321,1.4316,1.4326,1.4327,1.4324,1.4324,1.4343,1.4345,1.4337,1.4348,1.4337,1.4336,1.4338,1.4401,1.4406,1.4328,1.4328,1.4328,1.4328,1.4328,1.4328,1.4226,1.4211,1.4227,1.4217,1.4229,1.4224,1.4227,1.4233,1.4242,1.4238,1.4238,1.4251,1.4265,1.4268,1.4269,1.4274,1.4273,1.4257,1.4266,1.4324,1.4333,1.4342,1.4346,1.4257,1.4257,1.4203,1.4203,1.4202]}]]